SCP
0 0 0 0 0 0 0 0 0 0 0 0 0 0 0 0 0 0 0 0 0 0 0 0 0 0 0 0 0 0 1 1 1 1 1 0 0 0 0 0 0 0 0 0 1 1 1 1 1
0 0 0 0 0 0 0 0 0 0 0 0 0 0 0 0 0 0 0 0 0 0 0 0 0 0 0 0 0 0 0 1 1 1 1 1 1 1 1 1 0 1 1 1 1 1 1 1 1
0 0 0 0 0 0 0 0 0 0 0 0 0 0 0 0 0 0 0 0 0 0 0 0 0 0 0 0 0 0 0 0 0 0 0 0 0 1 1 1 1 1 1 1 1 1 1 1 1
0 0 0 0 0 0 0 0 0 0 0 0 0 0 0 0 0 0 0 0 0 0 0 0 0 0 0 0 0 0 0 0 0 0 0 0 0 0 0 1 1 1 1 1 1 1 1 1 1
0 0 0 0 0 0 0 0 0 0 0 0 0 0 0 0 0 0 0 0 0 0 0 0 0 0 0 0 0 0 0 0 0 0 0 0 0 0 0 0 0 0 1 1 1 1 1 1 1
0 0 0 0 0 0 0 0 0 0 0 0 0 0 0 0 0 0 0 0 0 0 0 0 0 0 0 0 0 0 0 0 0 0 0 0 0 0 0 0 0 0 0 1 1 1 1 1 1
0 0 0 0 0 0 0 0 0 0 0 0 0 0 0 0 0 0 0 0 0 0 0 0 0 0 0 0 0 0 0 0 0 0 0 0 0 0 0 0 0 0 0 0 0 1 1 1 1
0 0 0 0 0 0 0 0 0 0 0 0 0 0 0 0 0 0 0 0 0 0 0 0 0 0 0 0 0 0 0 0 0 0 0 0 0 0 0 0 0 0 0 0 0 0 1 1 1
0 0 0 0 0 0 0 0 0 0 0 0 0 0 0 0 0 0 0 0 0 0 0 0 0 0 0 0 0 0 0 0 0 0 0 0 0 0 0 0 0 0 0 0 0 0 0 0 1
0 0 0 0 0 0 0 0 0 0 0 0 0 0 0 0 0 0 0 0 0 0 0 0 0 0 0 0 0 0 0 0 0 0 0 0 0 0 0 0 0 0 0 0 0 0 0 0 0
0 0 0 0 0 0 0 0 0 0 0 0 0 0 0 0 0 0 0 0 0 0 0 0 0 0 0 0 0 0 0 0 0 0 0 0 0 0 0 0 0 0 0 0 0 0 0 0 0
0 0 0 0 0 0 0 0 0 0 0 0 0 0 0 0 0 0 0 0 0 0 0 0 0 0 0 0 0 0 0 0 0 0 0 0 0 0 0 0 0 0 0 0 0 0 0 0 0
0 0 0 0 0 0 0 0 0 0 0 0 0 0 0 0 0 0 0 0 0 0 0 0 0 0 0 0 0 0 0 0 0 0 0 0 0 0 0 0 0 0 0 0 0 0 0 0 0
0 0 0 0 0 0 0 0 0 0 0 0 0 0 0 0 0 0 0 0 0 0 0 0 0 0 0 0 0 0 0 0 0 0 0 0 0 0 0 0 0 0 0 0 0 0 0 0 0
0 0 0 0 0 0 0 0 0 0 0 0 0 0 0 0 0 0 0 0 0 0 0 0 0 0 0 0 0 0 0 0 0 0 0 0 0 0 0 0 0 0 0 0 0 0 0 0 0
0 0 0 0 0 0 0 0 0 0 0 0 0 0 0 0 0 0 0 0 0 0 0 0 0 0 0 0 0 0 0 0 0 0 0 0 0 0 0 -0 -0 -0 0 0 0 0 0 0 0
0 0 0 0 0 0 0 0 0 0 0 0 0 0 0 0 0 0 0 0 0 0 0 0 0 0 0 0 0 0 0 0 0 0 0 0 0 0 0 0 -0 -0 -0 -0 0 0 0 0 0
0 0 0 0 0 0 0 0 0 0 0 0 0 0 0 0 0 0 0 0 0 0 0 0 0 0 0 0 0 0 0 0 0 0 0 0 0 0 0 0 0 0 -0 -0 0 0 0 0 0
0 0 0 0 0 0 0 0 0 0 0 0 0 0 0 0 0 0 0 0 0 0 0 0 0 0 0 0 0 0 0 0 0 0 0 0 0 0 0 0 0 0 -0 -0 0 0 0 0 0
0 0 0 0 0 0 0 0 0 0 0 0 0 0 0 0 0 0 0 0 0 0 0 0 0 0 0 0 0 0 0 0 0 0 0 0 0 0 0 0 0 0 0 0 0 0 0 0 0
0 0 0 0 0 0 0 0 0 0 0 0 0 0 0 0 0 0 0 0 0 0 0 0 0 0 0 0 0 0 0 0 0 0 0 0 0 0 0 0 0 0 0 0 0 0 0 0 0
0 0 0 0 0 0 0 0 0 0 0 0 0 0 0 0 0 0 0 0 0 0 0 0 0 0 0 0 0 0 0 0 0 0 0 0 0 0 0 0 0 0 0 0 0 0 0 0 0
0 0 0 0 0 0 0 0 0 0 0 0 0 0 0 0 0 0 0 0 0 0 0 0 0 0 0 0 0 0 0 0 0 0 0 0 0 0 0 0 0 0 0 0 0 0 0 0 0
0 0 0 0 0 0 0 0 0 0 0 0 0 0 0 0 0 0 0 0 0 0 0 0 0 0 0 0 0 0 0 0 0 0 0 0 0 0 0 0 0 0 0 0 0 0 0 0 0
0 0 0 0 0 0 0 0 0 0 0 0 0 0 0 0 0 0 0 0 0 0 0 0 0 0 0 0 0 0 0 0 0 0 0 0 0 0 0 0 0 0 0 0 0 0 0 0 0
0 0 0 0 0 0 0 0 0 0 0 0 0 0 0 0 0 0 0 0 0 0 0 0 0 0 0 0 0 0 0 0 0 0 0 0 0 0 0 0 0 0 0 0 0 0 0 0 0
0 0 0 0 0 0 0 0 0 0 0 0 0 0 0 0 0 0 0 0 0 0 0 0 0 0 0 0 0 0 0 0 0 0 0 0 0 0 0 0 0 0 0 0 0 0 0 0 0
0 0 0 0 0 0 0 0 0 0 0 0 0 0 0 0 0 0 0 0 0 0 0 0 0 0 0 0 0 0 0 0 0 0 0 0 0 0 0 0 0 0 0 0 0 0 0 0 0
0 0 0 0 0 0 0 0 0 0 0 0 0 0 0 0 0 0 0 0 0 0 0 0 0 0 0 0 0 0 0 0 0 0 0 0 0 0 0 0 0 0 0 0 0 0 0 0 0
0 0 0 0 0 0 0 0 0 0 0 0 0 0 0 0 0 0 0 0 0 0 0 0 0 0 0 0 0 0 0 0 0 0 0 0 0 0 0 0 0 0 0 0 0 0 0 0 0
Wind_Speed
2 3 2 3 5 6 1 2 2 2 2 2 3 6 8 4 2 3 3 4 7 7 9 11 14 15 17 19 19 18 14 11 10 10 11 11 12 11 11 11 9 9 10 11 12 12 12 11 10
1 2 3 4 5 3 1 2 2 2 6 5 5 5 4 2 0 2 1 7 7 7 8 8 13 16 18 19 20 21 20 19 18 17 16 15 15 14 14 14 13 12 12 13 14 14 12 10 9
1 3 3 4 3 3 3 3 3 2 3 2 3 3 2 2 1 2 1 5 6 6 8 9 14 17 19 21 22 22 22 22 22 21 20 20 20 20 18 16 15 16 16 16 16 16 13 11 11
2 3 4 4 1 2 2 2 4 6 2 3 4 4 2 1 2 3 1 2 3 6 7 9 14 17 19 21 22 22 22 22 22 22 22 21 21 22 23 23 21 18 18 18 18 17 14 12 12
4 4 4 3 1 1 2 1 5 3 3 2 3 5 4 2 3 4 2 3 4 5 7 8 14 16 18 20 20 21 21 21 21 21 21 22 22 22 23 24 24 24 22 20 20 18 15 13 12
4 4 3 1 3 2 2 2 4 3 3 3 5 8 5 4 4 2 3 3 3 3 5 5 10 15 17 19 19 19 19 19 19 20 20 20 21 22 23 24 25 26 26 26 23 20 17 14 12
4 4 4 4 3 2 3 4 5 6 5 5 8 7 4 4 5 3 3 3 3 2 3 4 4 6 11 15 16 16 17 17 16 17 17 17 18 20 22 23 24 24 24 25 25 25 20 17 14
4 5 3 3 4 4 4 3 2 4 2 2 4 5 6 8 7 5 4 3 2 2 3 3 3 4 3 5 12 14 15 15 14 13 14 14 14 17 20 20 22 24 24 24 22 23 25 22 17
3 4 2 5 5 4 4 3 1 1 3 1 2 3 4 9 8 5 3 2 2 3 4 4 4 4 3 3 5 7 9 11 9 8 9 7 4 6 10 16 22 23 23 23 21 20 22 22 16
4 2 3 3 4 2 3 3 6 3 2 2 2 1 3 7 6 6 5 3 2 2 3 4 5 5 4 4 3 3 4 4 4 4 3 3 3 6 10 13 19 19 20 19 18 19 17 13 9
2 1 2 2 2 2 1 2 5 6 6 11 11 12 8 5 6 7 6 4 3 2 3 6 6 6 6 5 5 4 4 4 4 5 5 4 3 4 6 6 9 8 10 8 9 8 6 6 6
2 1 1 2 2 1 1 3 4 9 7 5 9 15 10 9 10 9 8 5 4 4 4 6 7 7 6 6 4 4 4 4 4 5 4 3 3 4 5 4 5 5 5 5 5 5 6 6 7
1 1 2 3 3 3 2 3 5 10 3 2 10 12 12 12 10 8 7 6 5 4 4 5 6 7 6 5 4 4 4 5 6 6 6 5 4 5 6 5 6 6 6 6 6 6 7 7 7
1 3 4 4 4 4 3 2 4 6 4 7 12 12 9 8 6 5 5 5 5 5 4 4 5 5 5 3 3 3 4 4 5 5 6 6 5 5 7 7 6 7 8 8 8 7 7 7 8
1 4 4 2 2 2 1 5 9 3 7 8 9 8 8 8 9 10 9 6 5 5 4 4 5 6 6 5 4 4 5 5 5 5 6 5 5 6 6 6 6 6 8 10 10 10 7 7 8
4 3 3 2 2 1 1 11 8 5 10 11 10 10 11 10 10 8 7 6 5 5 5 4 3 3 3 3 4 4 4 4 4 5 5 5 6 6 6 6 5 6 7 7 8 9 9 9 9
4 3 4 5 2 1 3 13 6 5 9 13 15 15 14 12 10 8 8 8 8 8 6 4 2 1 1 2 2 3 3 3 4 5 4 5 5 5 5 5 5 6 6 6 7 8 9 10 10
3 3 4 6 3 2 6 17 16 7 14 19 17 15 15 16 13 11 10 9 8 7 6 4 2 2 2 2 3 3 3 3 4 4 4 4 5 6 6 6 7 7 6 6 7 9 10 11 11
4 4 7 9 4 5 12 16 22 10 13 18 16 16 20 19 12 11 10 9 7 7 6 4 2 2 2 1 2 3 4 4 3 4 5 5 6 7 7 5 7 8 7 8 9 10 12 11 9
3 3 8 9 1 6 14 18 21 18 15 17 19 22 23 19 14 15 12 8 8 7 6 5 4 3 2 1 2 3 4 5 4 4 5 5 5 7 7 5 5 7 7 9 9 8 9 11 9
4 6 6 6 5 4 9 14 11 12 8 8 12 17 22 23 20 16 13 10 8 8 7 6 4 3 2 2 2 2 3 4 3 3 4 4 5 7 7 6 6 8 8 7 7 8 13 14 11
6 6 3 2 3 4 4 15 6 7 9 9 10 13 18 21 22 21 17 11 9 8 7 6 3 3 3 2 1 1 2 4 4 4 5 6 6 7 6 6 7 9 8 8 8 10 9 12 13
5 3 2 1 2 5 5 9 8 2 8 16 10 13 16 19 22 21 19 14 10 8 7 6 3 3 3 2 2 2 4 5 5 5 6 7 7 7 7 7 8 9 8 9 10 11 11 10 12
3 2 3 3 1 9 8 10 9 7 10 10 8 7 11 15 18 18 16 13 10 8 6 5 2 3 3 3 3 3 6 7 7 9 8 7 7 7 8 9 9 9 9 10 10 12 11 10 12
3 3 3 4 3 10 3 7 14 13 12 10 8 4 7 13 16 19 20 16 13 10 8 6 3 3 3 4 4 4 6 7 7 9 8 9 9 8 9 9 10 10 11 12 12 11 12 13 14
6 7 8 6 8 10 4 14 11 12 10 5 5 6 7 11 16 20 20 17 13 11 9 6 4 3 3 4 5 5 6 5 6 8 9 10 10 10 12 11 11 13 13 13 12 12 13 13 13
5 7 4 2 2 9 13 14 11 7 9 8 7 8 10 12 16 18 17 15 12 11 9 6 4 3 3 4 5 5 5 6 7 9 10 9 11 11 13 13 13 14 14 14 13 11 14 14 14
2 3 4 3 5 9 22 21 15 11 10 10 7 11 10 10 13 16 17 15 11 9 7 6 4 2 3 4 4 5 6 7 8 10 11 12 12 14 15 14 15 15 14 14 14 12 14 15 15
8 5 4 5 6 7 16 23 5 8 10 10 11 11 10 13 15 16 16 15 13 10 8 6 4 1 2 3 5 6 7 8 9 10 12 13 14 15 15 15 16 16 16 15 14 15 16 17 16
4 9 13 12 13 7 6 33 3 5 7 8 8 10 9 12 13 15 15 13 12 11 9 6 3 1 2 3 5 6 8 9 10 11 12 14 14 15 15 15 17 17 17 16 16 17 17 18 18
Wind_Direction
78 112 87 50 51 62 95 212 185 176 101 39 81 108 122 100 131 168 184 341 343 340 334 344 20 28 31 35 37 32 26 17 358 339 323 312 304 298 290 283 277 278 284 290 296 298 298 297 297
95 101 58 58 72 72 252 250 183 152 149 144 86 80 87 81 51 102 11 337 346 338 326 339 30 38 41 41 40 37 33 30 25 16 5 351 335 320 307 296 294 296 295 294 295 294 293 288 283
102 65 75 70 80 164 196 213 151 90 142 139 102 80 109 154 178 127 14 329 337 338 329 348 32 39 42 42 41 38 35 32 28 22 18 13 7 360 348 333 316 306 301 297 295 293 293 292 285
83 52 58 84 126 197 198 195 148 134 115 79 112 106 117 164 157 127 70 345 352 344 333 352 28 36 39 39 39 37 36 33 31 27 22 17 14 13 8 1 349 329 309 299 294 292 291 289 290
59 73 56 52 280 225 229 194 146 144 133 118 136 147 155 149 124 104 75 36 23 353 334 346 27 35 39 39 38 37 35 35 32 28 25 22 20 17 14 11 6 356 340 318 303 295 292 287 282
58 74 89 215 261 265 255 167 122 125 144 156 138 145 182 160 152 121 86 60 30 358 336 342 16 33 39 40 39 38 37 35 31 27 25 24 23 23 19 13 10 6 359 350 335 313 298 290 282
108 101 146 180 213 244 210 153 149 154 167 182 154 144 198 192 182 137 113 84 45 10 356 348 354 25 37 40 38 37 37 36 34 30 27 22 21 22 16 10 9 6 1 357 352 344 325 298 285
112 107 131 175 190 229 187 121 138 149 163 139 148 170 201 191 168 145 116 93 58 23 23 10 4 13 21 31 31 30 30 29 28 26 25 23 19 15 12 8 4 1 359 356 352 352 350 335 307
89 76 175 197 188 226 178 142 150 71 116 174 217 206 202 145 146 147 126 78 34 20 20 18 16 16 14 36 22 18 17 15 12 8 9 10 8 8 10 5 360 357 354 351 351 352 354 351 336
73 103 227 208 203 221 187 173 172 159 159 223 258 235 126 126 149 156 150 136 89 40 17 22 25 18 14 17 4 353 353 340 332 332 328 333 349 0 6 3 358 354 349 346 347 348 351 359 352
72 177 243 250 220 228 195 174 163 155 212 208 195 179 164 146 157 158 154 147 128 89 37 26 23 20 21 11 2 352 343 330 325 333 340 338 349 357 3 358 352 345 339 333 336 338 341 341 341
35 332 281 280 235 203 225 152 211 202 221 215 186 162 159 164 173 169 164 161 130 90 52 33 27 24 21 17 9 355 339 339 331 326 330 335 347 357 354 348 340 334 325 314 314 311 312 320 322
87 283 294 283 274 241 191 215 250 244 243 131 143 153 169 176 178 172 157 148 125 105 76 44 34 29 18 20 4 352 344 346 337 332 337 357 3 352 344 346 339 331 322 312 308 301 296 302 304
268 273 265 257 245 237 227 257 282 260 123 133 156 173 174 177 167 146 158 155 142 132 108 80 58 40 32 27 4 350 349 341 333 325 330 353 359 355 353 338 333 334 330 317 305 293 285 287 294
351 319 308 243 208 221 220 274 243 191 136 160 177 182 179 193 183 179 177 162 144 121 95 75 59 35 21 9 356 351 350 349 332 321 326 353 356 4 348 333 327 327 331 321 309 301 289 283 281
12 10 337 285 163 172 160 267 264 165 163 190 196 194 195 202 197 187 170 152 139 131 120 96 70 38 5 348 336 330 330 326 319 316 318 347 359 3 350 336 320 322 318 306 301 299 298 297 292
15 317 298 296 221 174 213 265 264 170 188 206 206 203 201 204 201 184 174 166 162 156 147 143 162 209 276 288 282 278 283 299 302 303 309 343 354 353 345 326 318 316 309 305 302 297 294 291 288
231 263 266 258 255 219 236 263 267 205 202 217 213 205 204 205 200 186 182 176 166 161 158 166 200 233 276 291 296 284 274 269 269 284 304 335 340 342 337 327 328 326 316 308 305 295 286 280 277
172 210 252 259 242 252 252 257 273 252 213 226 219 206 209 208 192 187 185 176 163 169 169 174 187 240 245 277 312 302 284 280 279 299 324 335 333 331 322 320 328 320 309 301 290 281 278 273 278
164 226 261 275 284 241 267 266 268 259 233 221 216 211 211 202 191 190 185 178 175 175 178 189 209 235 234 226 251 261 273 281 291 304 313 316 311 307 306 306 302 297 286 276 272 276 289 278 270
208 202 230 262 320 276 293 277 265 275 262 244 220 215 210 203 197 190 190 190 184 183 188 196 217 255 249 236 261 280 287 287 274 273 287 287 291 287 288 283 287 288 276 274 283 283 279 281 276
242 220 212 282 321 294 336 291 248 267 282 264 238 215 210 203 196 189 187 189 190 193 188 196 213 252 243 236 263 286 269 269 274 293 289 296 289 280 271 262 269 275 273 281 284 277 276 281 284
209 133 130 149 234 281 233 247 264 306 269 267 251 225 214 202 195 189 185 185 189 183 183 193 217 265 261 256 263 283 275 263 274 279 291 293 283 276 281 276 269 273 276 282 284 277 269 265 276
140 99 66 61 46 265 221 224 253 206 220 247 255 231 211 199 197 191 183 179 184 177 177 187 223 264 274 281 291 299 288 291 301 313 313 302 296 291 282 279 280 281 279 278 279 273 269 276 275
125 106 327 316 247 250 195 228 250 232 223 223 247 263 223 194 189 189 186 183 181 177 178 184 213 262 291 305 303 295 282 287 297 302 303 301 298 290 283 285 286 282 277 276 277 275 274 268 266
170 160 185 222 254 283 244 246 257 237 247 256 252 264 245 195 193 198 192 182 180 178 178 183 203 255 294 302 296 290 290 290 288 291 297 295 289 286 287 286 284 284 282 279 276 276 274 274 276
175 195 184 166 267 280 266 268 279 276 279 268 261 260 242 203 198 198 188 182 180 177 176 176 191 244 280 291 296 298 286 285 297 303 297 287 287 289 290 288 287 284 281 278 276 274 276 273 271
181 170 136 176 225 263 271 272 260 241 244 249 237 241 236 203 199 197 187 181 178 172 162 161 179 236 285 297 292 294 298 305 306 301 291 288 289 289 288 288 287 284 280 280 277 272 273 273 271
156 189 176 199 209 219 274 273 202 228 204 222 229 234 222 201 197 194 189 178 170 161 163 172 180 222 291 291 285 295 310 313 304 296 295 295 293 292 292 291 288 285 282 280 276 271 271 269 268
193 185 172 205 229 215 241 267 234 208 219 236 236 237 224 204 194 191 185 169 167 169 173 172 167 203 260 269 286 306 310 308 302 299 301 301 298 293 290 288 286 286 284 281 276 273 271 270 270